Location: Beekmeers
(50.8953°N, 3.6968°E)
Time: 05:34:42
(UTC+00:00)

USA 234 - Pass Details

Date: 23 May 2024
Orbit: 1100 x 1107 km, 123.0° (Epoch: 16 June)

Event Time Altitude Azimuth Distance (km) Brightness Sun altitude
Exits shadow 00:56:34 12° 154° (SSE) 2,825 5.0 -16.6°
Maximum altitude 01:02:23 44° 224° (SW) 1,475 3.5 -16.3°
Drops below altitude 10° 01:08:36 10° 296° (WNW) 2,964 5.6 -16.0°
Sets 01:11:14 0° 302° (WNW) 3,924 6.3 -15.8°
